Current weather by "City, St" or "zip code"  
 

Current Conditions: Wichita Jabara Airport, KS

Fair


45.0 F

Last Updated on Oct 29 2020, 7:54 pm CDT
Humidity: 56%
Wind Speed: NW 4.6 mph
Barometer 30.18 in
Dewpoint: 30.0 F
Visibility: 10.00 mi
Precip: --
Heat Index: NA
Wind Chill: 43 F
Current conditions at:

Wichita Jabara Airport, KS (KAAO)

Lat: 37.74969 Lon: 97.21908

Local Radar Image active severe weather and emergency alerts image image weather storm and storm spotter reports image weather observation monitoring service image
Local
Radar
Active
Alerts
Storm Reports Obs
Monitoring

Sign-up For Email & Text Message Weather Alert Notification Services



Advertise Here

Observation History for Wichita Jabara Airport, KS


Time Wind
(mph)
Vis
(mi)
Weather Precip (in) Temperature (F) Relative
Humidity
Wind
Chill
(F)
Heat
Index
(F)
Pressure
Air Dwpt altimeter
(in)
sea level
(mb)
Rmks
7:54 pm CDT NW 4.6 10.00 Fair -- 45.0 30.0 56% 43 NA 30.18 1022.8
6:54 pm CDT NW 3.5 10.00 Fair -- 47.0 30.0 52% NA NA 30.17 1022.2
5:54 pm CDT N 9.2 10.00 Fair -- 51.0 28.9 43% 48 NA 30.16 1021.9
4:54 pm CDT NW 12.7 10.00 Fair -- 53.0 28.0 38% 49 NA 30.17 1022.0
3:54 pm CDT NW 13.8 G 21.9 10.00 Fair -- 53.0 28.0 38% 49 NA 30.15 1021.4
2:54 pm CDT NW 13.8 10.00 Fair -- 53.0 28.9 40% 49 NA 30.14 1021.2
1:54 pm CDT N 17.3 10.00 Fair -- 51.0 28.0 41% 45 NA 30.15 1021.5
12:54 pm CDT N 18.4 G 27.6 10.00 Fair -- 50.0 28.0 43% 44 NA 30.16 1021.8
11:54 am CDT N 20.7 G 31.1 10.00 Fair and Breezy -- 47.0 30.0 52% 40 NA 30.16 1021.9
10:54 am CDT N 21.9 G 31.1 10.00 Fair and Breezy -- 43.0 32.0 65% 34 NA 30.14 1021.5
9:54 am CDT N 16.1 G 25.3 10.00 Fair -- 40.0 32.0 73% 32 NA 30.12 1020.7
8:54 am CDT N 19.6 10.00 Fair -- 39.0 33.1 79% 29 NA 30.08 1019.2
7:54 am CDT N 16.1 G 27.6 10.00 Overcast -- 39.0 35.1 86% 30 NA 30.02 1017.4
6:54 am CDT N 20.7 G 31.1 10.00 Overcast and Breezy 00.04 41.0 36.0 82% 32 NA 29.96 1015.3
5:54 am CDT N 17.3 7.00 Rain 00.12 42.0 39.0 89% 34 NA 29.94 1014.4
4:54 am CDT N 13.8 G 24.2 10.00 Light Rain 00.01 42.0 37.9 85% 35 NA 29.92 1013.7
3:54 am CDT N 9.2 9.00 Light Rain 00.04 41.0 36.0 82% 35 NA 29.90 1013.1
2:54 am CDT N 15.0 G 20.7 10.00 Light Rain 00.02 41.0 34.0 76% 33 NA 29.86 1012.1
12:54 am CDT N 16.1 G 27.6 10.00 Overcast Trace 40.0 34.0 79% 32 NA 29.82 1010.6
11:54 pm CDT NE 25.3 G 36.8 10.00 Light Rain and Breezy 00.22 40.0 36.0 86% 29 NA 29.80 1009.8
10:54 pm CDT N 20.7 G 27.6 6.00 Light Rain Fog/Mist and Breezy 00.02 40.0 37.0 89% 30 NA 29.80 1010.1
9:54 pm CDT N 6.9 10.00 Light Rain 00.02 41.0 39.0 93% 36 NA 29.82 1010.7
8:54 pm CDT 6.9 5.00 Rain Fog/Mist -- 42.0 39.9 92% 38 NA 29.81 1010.4

Regional Weather Observation


Wichita Jabara Airport, KS (KAAO)

Fair
45.0 F

Wichita - Wichita Dwight D. Eisenhower National Airport, KS (KICT)

Fair
43.0 F

Hutchinson, Hutchinson Municipal Airport, KS (KHUT)

Fair
40.0 F

McConnell Air Force Base, KS (KIAB)

Fair
46.0 F

Winfield / Arkansas City, Strother Field, KS (KWLD)

Fair
45.0 F

Salina, Salina Municipal Airport, KS (KSLN)

Fair
39.0 F